When you browse on this site, cookies collect data to enhance your experience and personalize the content and advertising you see.
Visit our Privacy Policy to learn more. By continuing to use the site, you agree to this use of cookies and data.
  • In Österreich
  • Länderverzeichnis
  • Für 7 Tage
  • Wassertemperatur
  • Satellitenkarten
  • Wetterkarte
  • News
  • Widgets
  • user-avatar
    Anmelden

    Stündliche Wetter Barra

    Heute, 26 Mai, Sonntag

    Zeit Temperatur Niederschläge Wind Luftdruck Luftfeuchtigkeit
    00:00 +20°C° 0.7 mm 3 m/S 751 mmHg 95%
    01:00 +20°C° 0.7 mm 3 m/S 751 mmHg 95%
    02:00 +20°C° 0.8 mm 3 m/S 751 mmHg 95%
    03:00 +20°C° 0.8 mm 3 m/S 751 mmHg 95%
    04:00 +20°C° 0.8 mm 3 m/S 751 mmHg 95%
    05:00 +20°C° 0.5 mm 3 m/S 751 mmHg 95%
    06:00 +20°C° 0.5 mm 3 m/S 751 mmHg 95%
    07:00 +20°C° 0.5 mm 3 m/S 751 mmHg 95%
    08:00 +21°C° 0.6 mm 3 m/S 751 mmHg 92%
    09:00 +22°C° 0.6 mm 3 m/S 751 mmHg 89%
    10:00 +23°C° 0.6 mm 4 m/S 751 mmHg 85%
    11:00 +24°C° 0.8 mm 3 m/S 751 mmHg 85%
    12:00 +25°C° 0.8 mm 3 m/S 750 mmHg 84%
    13:00 +25°C° 0.8 mm 3 m/S 750 mmHg 84%
    14:00 +25°C° 0.5 mm 3 m/S 749 mmHg 84%
    15:00 +25°C° 0.5 mm 3 m/S 749 mmHg 85%
    16:00 +25°C° 0.5 mm 3 m/S 749 mmHg 85%
    17:00 +24°C° 0.4 mm 3 m/S 749 mmHg 88%
    18:00 +22°C° 0.4 mm 3 m/S 750 mmHg 91%
    19:00 +21°C° 0.4 mm 2 m/S 750 mmHg 94%
    20:00 +21°C° 0.1 mm 2 m/S 750 mmHg 95%
    21:00 +20°C° 0.1 mm 2 m/S 751 mmHg 95%
    22:00 +20°C° 0.1 mm 2 m/S 751 mmHg 95%
    23:00 +20°C° 0.1 mm 2 m/S 751 mmHg 95%

    Morgen, 27 Mai, Montag

    Zeit Temperatur Niederschläge Wind Luftdruck Luftfeuchtigkeit
    00:00 +20°C° 0.1 mm 2 m/S 751 mmHg 95%
    01:00 +20°C° 0.1 mm 2 m/S 751 mmHg 95%
    02:00 +20°C° 0.2 mm 2 m/S 750 mmHg 96%
    03:00 +20°C° 0.2 mm 2 m/S 750 mmHg 96%
    04:00 +20°C° 0.2 mm 2 m/S 750 mmHg 96%
    05:00 +20°C° 0.2 mm 2 m/S 750 mmHg 96%
    06:00 +20°C° 0.2 mm 2 m/S 750 mmHg 96%
    07:00 +20°C° 0.2 mm 2 m/S 751 mmHg 96%
    08:00 +21°C° 0.3 mm 2 m/S 751 mmHg 90%
    09:00 +24°C° 0.3 mm 2 m/S 751 mmHg 83%
    10:00 +25°C° 0.3 mm 2 m/S 751 mmHg 77%
    11:00 +25°C° 0.5 mm 2 m/S 751 mmHg 79%
    12:00 +25°C° 0.5 mm 2 m/S 750 mmHg 81%
    13:00 +25°C° 0.5 mm 2 m/S 750 mmHg 84%
    14:00 +24°C° 0.1 mm 2 m/S 750 mmHg 84%
    15:00 +24°C° 0.1 mm 2 m/S 749 mmHg 84%
    16:00 +24°C° 0.1 mm 2 m/S 749 mmHg 84%
    17:00 +23°C° 0.1 mm 2 m/S 750 mmHg 86%
    18:00 +21°C° 0.1 mm 2 m/S 750 mmHg 88%
    19:00 +20°C° 0.1 mm 2 m/S 751 mmHg 90%
    20:00 +20°C° 0.1 mm 2 m/S 751 mmHg 91%
    21:00 +20°C° 0.1 mm 2 m/S 751 mmHg 91%
    22:00 +20°C° 0.1 mm 2 m/S 751 mmHg 92%
    23:00 +20°C° 0 mm 2 m/S 751 mmHg 92%

    übermorgen, 28 Mai, Dienstag

    Zeit Temperatur Niederschläge Wind Luftdruck Luftfeuchtigkeit
    00:00 +20°C° 0 mm 2 m/S 751 mmHg 92%
    01:00 +19°C° 0 mm 2 m/S 751 mmHg 92%
    02:00 +19°C° 0 mm 2 m/S 750 mmHg 91%
    03:00 +19°C° 0 mm 2 m/S 750 mmHg 91%
    04:00 +19°C° 0 mm 2 m/S 750 mmHg 90%
    05:00 +19°C° 0 mm 2 m/S 750 mmHg 90%
    06:00 +19°C° 0 mm 2 m/S 751 mmHg 90%
    07:00 +19°C° 0 mm 2 m/S 751 mmHg 89%
    08:00 +21°C° 0 mm 2 m/S 751 mmHg 81%
    09:00 +24°C° 0 mm 2 m/S 751 mmHg 73%
    10:00 +26°C° 0 mm 2 m/S 752 mmHg 65%
    11:00 +27°C° 0 mm 2 m/S 751 mmHg 62%
    12:00 +27°C° 0 mm 3 m/S 751 mmHg 60%
    13:00 +28°C° 0 mm 3 m/S 750 mmHg 57%
    14:00 +27°C° 0 mm 3 m/S 750 mmHg 59%
    15:00 +27°C° 0 mm 3 m/S 750 mmHg 60%
    16:00 +26°C° 0 mm 3 m/S 750 mmHg 62%
    17:00 +25°C° 0 mm 2 m/S 750 mmHg 70%
    18:00 +23°C° 0 mm 2 m/S 750 mmHg 78%
    19:00 +21°C° 0 mm 2 m/S 751 mmHg 85%
    20:00 +20°C° 0.2 mm 2 m/S 751 mmHg 88%
    21:00 +20°C° 0.2 mm 2 m/S 751 mmHg 90%
    22:00 +21°C° 0.2 mm 1 m/S 752 mmHg 93%
    23:00 +21°C° 0.4 mm 1 m/S 751 mmHg 93%

    29 Mai, Mittwoch

    Zeit Temperatur Niederschläge Wind Luftdruck Luftfeuchtigkeit
    00:00 +21°C° 0.4 mm 1 m/S 751 mmHg 94%
    01:00 +21°C° 0.4 mm 1 m/S 751 mmHg 95%
    02:00 +21°C° 0.2 mm 1 m/S 751 mmHg 96%
    03:00 +20°C° 0.2 mm 1 m/S 750 mmHg 96%
    04:00 +20°C° 0.2 mm 1 m/S 750 mmHg 96%
    05:00 +19°C° 0.2 mm 2 m/S 750 mmHg 96%
    06:00 +19°C° 0.2 mm 2 m/S 751 mmHg 96%
    07:00 +19°C° 0.2 mm 2 m/S 751 mmHg 96%
    08:00 +21°C° 0.2 mm 2 m/S 751 mmHg 91%
    09:00 +23°C° 0.2 mm 2 m/S 751 mmHg 85%
    10:00 +24°C° 0.2 mm 2 m/S 752 mmHg 80%
    11:00 +25°C° 0.3 mm 2 m/S 751 mmHg 78%
    12:00 +25°C° 0.3 mm 2 m/S 751 mmHg 75%
    13:00 +26°C° 0.3 mm 2 m/S 750 mmHg 73%
    14:00 +26°C° 0.2 mm 2 m/S 750 mmHg 75%
    15:00 +25°C° 0.2 mm 2 m/S 749 mmHg 76%
    16:00 +25°C° 0.2 mm 2 m/S 749 mmHg 78%
    17:00 +24°C° 0.1 mm 2 m/S 750 mmHg 83%
    18:00 +21°C° 0.1 mm 2 m/S 750 mmHg 88%
    19:00 +21°C° 0.1 mm 1 m/S 751 mmHg 93%
    20:00 +21°C° 0.1 mm 1 m/S 751 mmHg 93%
    21:00 +21°C° 0.1 mm 1 m/S 751 mmHg 94%
    22:00 +21°C° 0.1 mm 1 m/S 751 mmHg 95%
    23:00 +21°C° 0.1 mm 1 m/S 751 mmHg 95%

    30 Mai, Donnerstag

    Zeit Temperatur Niederschläge Wind Luftdruck Luftfeuchtigkeit
    00:00 +21°C° 0.1 mm 1 m/S 751 mmHg 95%
    01:00 +21°C° 0.1 mm 1 m/S 750 mmHg 95%
    02:00 +21°C° 0.1 mm 1 m/S 750 mmHg 95%
    03:00 +21°C° 0.1 mm 1 m/S 750 mmHg 95%
    04:00 +20°C° 0.1 mm 2 m/S 750 mmHg 95%
    05:00 +20°C° 0.1 mm 2 m/S 750 mmHg 95%
    06:00 +20°C° 0.1 mm 2 m/S 751 mmHg 96%
    07:00 +20°C° 0.1 mm 2 m/S 751 mmHg 96%
    08:00 +21°C° 0.1 mm 2 m/S 751 mmHg 89%
    09:00 +24°C° 0.1 mm 2 m/S 752 mmHg 82%
    10:00 +26°C° 0.1 mm 2 m/S 752 mmHg 75%
    11:00 +25°C° 0.3 mm 2 m/S 752 mmHg 76%
    12:00 +25°C° 0.3 mm 2 m/S 751 mmHg 78%
    13:00 +25°C° 0.3 mm 2 m/S 751 mmHg 79%
    14:00 +25°C° 0.2 mm 2 m/S 750 mmHg 80%
    15:00 +24°C° 0.2 mm 2 m/S 750 mmHg 81%
    16:00 +24°C° 0.2 mm 2 m/S 750 mmHg 82%
    17:00 +24°C° 0.1 mm 2 m/S 751 mmHg 85%
    18:00 +23°C° 0.1 mm 2 m/S 751 mmHg 88%
    19:00 +21°C° 0.1 mm 3 m/S 752 mmHg 91%
    20:00 +21°C° 0.2 mm 3 m/S 752 mmHg 91%
    21:00 +20°C° 0.2 mm 3 m/S 752 mmHg 91%
    22:00 +20°C° 0.2 mm 3 m/S 753 mmHg 90%
    23:00 +19°C° 0.1 mm 3 m/S 753 mmHg 89%

    31 Mai, Freitag

    Zeit Temperatur Niederschläge Wind Luftdruck Luftfeuchtigkeit
    00:00 +19°C° 0.1 mm 3 m/S 752 mmHg 87%
    01:00 +19°C° 0.1 mm 3 m/S 752 mmHg 86%
    02:00 +18°C° 0.3 mm 3 m/S 752 mmHg 87%
    03:00 +18°C° 0.3 mm 3 m/S 751 mmHg 88%
    04:00 +18°C° 0.3 mm 3 m/S 751 mmHg 89%
    05:00 +18°C° 0.3 mm 4 m/S 751 mmHg 89%
    06:00 +18°C° 0.3 mm 4 m/S 752 mmHg 90%
    07:00 +18°C° 0.3 mm 4 m/S 752 mmHg 90%
    08:00 +17°C° 0.2 mm 4 m/S 753 mmHg 89%
    09:00 +17°C° 0.2 mm 4 m/S 753 mmHg 88%
    10:00 +16°C° 0.2 mm 5 m/S 753 mmHg 87%
    11:00 +16°C° 0.1 mm 5 m/S 753 mmHg 85%
    12:00 +16°C° 0.1 mm 5 m/S 752 mmHg 84%
    13:00 +17°C° 0.1 mm 4 m/S 752 mmHg 82%
    14:00 +17°C° 0.3 mm 4 m/S 752 mmHg 86%
    15:00 +15°C° 0.3 mm 4 m/S 752 mmHg 89%
    16:00 +15°C° 0.3 mm 4 m/S 752 mmHg 92%
    17:00 +14°C° 0.2 mm 4 m/S 753 mmHg 91%
    18:00 +14°C° 0.2 mm 4 m/S 753 mmHg 90%
    19:00 +14°C° 0.2 mm 4 m/S 754 mmHg 89%
    20:00 +14°C° 0 mm 4 m/S 754 mmHg 86%
    21:00 +14°C° 0 mm 4 m/S 754 mmHg 83%
    22:00 +14°C° 0 mm 4 m/S 754 mmHg 80%
    23:00 +15°C° 0 mm 4 m/S 754 mmHg 75%
    Mehr zeigen